Flag for U.S.A. Weather past 2 weeks in Newark, New Jersey, U.S.A.

Now
64 °F

Overcast.


Feels Like: 64 °F
Forecast: 59 / 69 °F
Wind: 9 mph from Northeast

Location: Newark International Airport

Current Time: Oct 2, 2014 at 12:14:47 PM

Latest Report: Oct 2, 2014 at 11:51 AM


Visibility: 10 mi

Pressure: 30.14 "Hg

Humidity: 73%

Dew point: 55 °F

Location of NewarkLocation

Historic Weather in Newark — Graph

°F

Newark temperature yesterday

Maximum temperature yesterday: 65 °F (at 1:51 PM)
Minimum temperature yesterday: 62 °F (at 4:51 AM)
Average temperature yesterday: 63 °F

Past Weeks' High & Low Weather Summary

 TemperatureHumidityPressure
High85 °F (Sep 28, 1:51 PM)97% (Sep 21, 3:51 AM)30.55 "Hg (Sep 21, 3:51 AM)
Low51 °F (Sep 23, 2:51 AM)29% (Sep 23, 4:51 PM)29.61 "Hg (Sep 21, 6:51 PM)
Average66 °F66%30.12 "Hg
* Reported Sep 17 10:51 AM — Oct 2 10:51 AM, Newark, Weather by CustomWeather, © 2014

Note: Actual official high and low records may vary slightly from our data, if they occured in-between our weather recording intervals... More about our weather records

Advertising

Newark weather history for previous 24 hours

 ConditionsComfort  
Time TempWeatherWind HumidityBarometerVisibility
10:51 AM
Oct 2
63 °FOvercast.13 mph75%30.15 "Hg10 mi
9:51 AM63 °FOvercast.12 mph75%30.14 "Hg10 mi
8:51 AM62 °FMostly cloudy.9 mph80%30.13 "Hg10 mi
7:51 AM61 °FMostly cloudy.9 mph83%30.13 "Hg10 mi
6:51 AM61 °FOvercast.9 mph83%30.11 "Hg10 mi
5:51 AM61 °FMostly cloudy.8 mph87%30.10 "Hg10 mi
4:51 AM60 °FMostly cloudy.10 mph90%30.09 "Hg10 mi
3:51 AM60 °FLow clouds.7 mph93%30.08 "Hg10 mi
2:51 AM60 °FMostly cloudy.9 mph93%30.09 "Hg8 mi
1:51 AM61 °FMostly cloudy.8 mph90%30.09 "Hg10 mi
12:51 AM61 °FOvercast.10 mph87%30.07 "Hg8 mi
11:51 PM
Oct 1
63 °FMostly cloudy.10 mph78%30.08 "Hg10 mi
10:51 PM63 °FMostly cloudy.9 mph78%30.08 "Hg10 mi
9:51 PM64 °FMostly cloudy.8 mph78%30.07 "Hg10 mi
8:51 PM64 °FMostly cloudy.12 mph78%30.06 "Hg10 mi
7:51 PM65 °FMostly cloudy.10 mph81%30.06 "Hg10 mi
6:51 PM65 °FMore clouds than sun.9 mph81%30.04 "Hg10 mi
5:51 PM64 °FMostly cloudy.8 mph87%30.03 "Hg10 mi
4:51 PM64 °FLight rain. Cloudy.10 mph87%30.03 "Hg9 mi
3:51 PM65 °FMostly cloudy.13 mph81%30.03 "Hg10 mi
2:51 PM65 °FMostly cloudy.12 mph81%30.03 "Hg10 mi
1:51 PM65 °FMostly cloudy.13 mph78%30.03 "Hg10 mi
12:51 PM64 °FLight rain. Mostly cloudy.12 mph84%30.04 "Hg10 mi
12:03 PM64 °FLight rain. Mostly cloudy.13 mph83%30.05 "Hg7 mi
Weather by CustomWeather, © 2014

See weather overviewHow to use our weather pages